World > North America > United States > Ohio

St. Martin, Ohio Regional Weather

Lat: 39.21N, Lon: 83.89W
Wx Zone: OHZ079Web Search

Pass this page to a friend. Tell them to point their camera at the QR Code near the bottom of this page.

Feedback


°F Click to change St. Martin hourly weather to Imperial units.Click to change St. Martin hourly weather to Metric units. °C
Saint Martin Weather Map
UTC Time: 5/18/2021, 23:49
Your Time:

St. Martin, OH Regional Weather

Expires:202105190000;;333616
ASUS41 KCLE 182312
RWRCLE
OHIO REGIONAL WEATHER ROUNDUP
NATIONAL WEATHER SERVICE WILMINGTON, OH
700 PM EDT TUE MAY 18 2021

NOTE: "FAIR" INDICATES FEW OR NO CLOUDS BELOW 12,000 FEET WITH NO
SIGNIFICANT WEATHER AND/OR OBSTRUCTIONS TO VISIBILITY.


OHZ042-051>053-060>062-070>072-077>081-190000-
  SOUTHWEST OHIO
  
CITY           SKY/WX    TMP DP  RH WIND       PRES   REMARKS
CINC-COVINGTON PTSUNNY   77  55  46 SE14      30.21F                  
CINC-LUNKEN    FAIR      77  56  48 S7        30.21F                  
HAMILTON       FAIR      77  54  44 E6        30.22F                  
DAYTON         PTSUNNY   76  53  44 SE6       30.25F                  
WRIGHT-PAT AFB PTSUNNY   77  55  46 SE8       30.24S                  
DAYTON GENERAL FAIR      75  55  49 E9        30.23F                  
WILMINGTON     FAIR      74  55  51 SE6       30.24F                  
$$


SKY/WX - Weather  TMP - Temperature  DP - Dew Point  RH - Relative Humidity
WIND - Wind Direction/Speed PRES - Barometric Pressure VSB - Visibility
WCI - Wind Chill Index E13G22 Wind - East Wind 13 mph/Gusts of 22 mph